Terminal Aerodrome Forecast
Issued by NWS Mobile, AL

Home | Current Version | Previous Version | Text Only | Print | Product List | Glossary On
Versions: 1 2 3 4 5 6 7 8 9 10 11 12 13 14 15 16 17 18 19 20 21 22 23 24 25 26 27 28 29 30 31 32 33 34 35 36 37 38 39 40 41 42 43 44 45 46
000
FTUS44 KMOB 051135
TAFMOB
TAF
KMOB 051135Z 0512/0612 21008KT P6SM BKN006 OVC019
     FM051500 35016G26KT 3SM -RA BR OVC004
     FM051800 36016KT P6SM OVC015
      TEMPO 0518/0520 4SM -RA BR BKN010
     FM060000 36015G22KT P6SM OVC015=

USA.gov is the U.S. government's official web portal to all federal, state and local government web resources and services.